R8AHC-13 Weather Reports


time (UTC)temp
C
wind
direction
speed
KPH
gust
KPH
rain 1hr
cm
rain 24hr
cm
rain mn
cm
humidity
%
barometer
mb
20260507143702 25 160 11.3 0.0 0.00 0.00 0.00 27 1010.0
20260507133702 26 170 14.5 0.0 0.00 0.00 0.00 24 1010.0
20260507123702 26 180 14.5 0.0 0.00 0.00 0.00 24 1010.0
20260507113702 26 200 11.3 0.0 0.00 0.00 0.00 24 1010.0
20260507103702 21 170 14.5 0.0 0.00 0.00 0.00 35 1010.0
20260507093702 21 200 11.3 0.0 0.00 0.00 0.00 35 1011.0
20260507083702 21 190 14.5 0.0 0.00 0.00 0.00 35 1011.0
20260507073702 21 200 11.3 0.0 0.00 0.00 0.00 35 1010.0
20260507063701 21 220 11.3 0.0 0.00 0.00 0.00 35 1010.0
20260507053702 21 290 6.4 0.0 0.00 0.00 0.00 35 1011.0
20260507043702 21 260 14.5 0.0 0.00 0.00 0.00 35 1011.0
20260507033702 13 240 14.5 0.0 0.00 0.00 0.00 54 1010.0
20260507023702 13 210 6.4 0.0 0.00 0.00 0.00 54 1010.0
20260507013702 13 220 11.3 0.0 0.00 0.00 0.00 54 1010.0
20260507003702 13 190 11.3 0.0 0.00 0.00 0.00 54 1010.0
20260506233702 13 190 3.2 0.0 0.00 0.00 0.00 54 1010.0
20260506223702 13 190 11.3 0.0 0.00 0.00 0.00 54 1011.0
20260506213701 13 220 11.3 0.0 0.00 0.00 0.00 54 1011.0
20260506203702 13 210 11.3 0.0 0.00 0.00 0.00 54 1010.0
20260506193702 13 220 11.3 0.0 0.00 0.00 0.00 54 1011.0
20260506183702 17 210 17.7 0.0 0.00 0.00 0.00 42 1011.0
20260506173702 17 200 14.5 0.0 0.00 0.00 0.00 42 1012.0
20260506163703 17 200 14.5 0.0 0.00 0.00 0.00 42 1012.0
20260506153702 17 200 14.5 0.0 0.00 0.00 0.00 42 1012.0